Temperature
8 8 9 10 11 12 13 14 14 16 17 16 16 17 18 19 18 19 19 20 19 19 19 19 18 17 17 16 16 16 16 16 15 14 14 13 13 13 13 12 12 12 11 11
8 8 10 12 12 12 12 12 13 15 16 15 16 16 18 19 19 18 19 19 19 19 19 18 18 17 17 17 17 17 17 16 16 16 16 16 14 13 12 12 12 12 12 11
7 9 11 10 11 10 11 11 13 14 14 14 15 15 17 18 18 18 18 19 19 19 19 19 18 17 17 17 17 17 17 17 17 16 15 14 13 12 12 12 12 12 12 11
8 9 10 10 10 10 10 12 12 13 13 13 14 14 17 18 18 18 18 18 19 19 19 19 18 18 17 18 18 18 18 17 17 16 15 14 14 14 15 14 13 12 12 11
7 9 9 9 10 11 11 12 12 12 12 12 13 13 16 18 17 18 19 18 18 19 18 18 18 18 18 19 18 18 18 17 17 16 16 15 15 15 14 13 12 12 12 11
7 8 9 9 10 11 11 11 10 11 10 10 12 13 15 17 18 19 19 19 19 18 18 18 18 18 18 18 18 18 18 17 17 16 16 16 16 15 13 13 12 12 12 11
7 8 9 9 8 9 10 9 9 9 9 11 14 13 15 18 18 19 19 19 19 18 18 18 18 18 18 18 18 18 18 18 17 17 16 16 16 15 14 14 13 13 12 12
6 7 8 8 8 8 9 9 10 10 11 13 14 13 16 18 18 18 18 18 18 18 18 18 18 18 18 18 18 18 18 18 18 17 17 16 16 14 14 14 13 13 13 13
5 6 8 8 9 9 8 9 10 11 12 12 13 15 16 16 17 17 17 17 17 17 17 17 17 17 18 18 18 18 18 18 18 17 17 16 15 15 15 14 13 13 13 12
4 5 7 8 8 9 9 9 9 9 10 11 13 14 16 16 16 17 17 17 17 17 16 16 17 17 17 18 18 18 18 18 18 17 17 16 16 15 14 14 13 13 12 12
4 4 6 7 7 8 8 8 8 8 10 12 13 15 17 18 17 17 17 17 17 17 16 16 16 17 17 17 17 17 17 17 17 17 16 16 15 14 14 13 13 12 12 12
4 4 5 6 7 7 8 8 7 8 9 11 13 16 16 16 17 17 17 17 16 16 15 15 16 16 16 17 16 17 17 17 17 17 16 16 15 14 13 13 13 12 12 11
3 3 4 6 6 5 6 7 7 8 10 11 13 15 16 15 15 15 16 16 15 14 14 14 15 15 16 16 16 16 16 16 16 16 16 15 15 14 14 13 12 12 11 11
4 3 4 5 5 5 5 6 7 7 8 10 12 14 15 15 15 15 15 14 14 14 14 14 14 14 15 16 16 16 16 16 16 15 15 15 14 14 13 12 12 11 11 11
3 3 4 4 5 5 6 6 6 7 9 10 12 13 15 15 15 15 14 13 13 13 13 13 14 14 15 15 15 15 15 15 15 15 15 14 14 13 12 12 11 11 11 10
2 2 3 4 5 6 6 6 7 7 9 10 12 13 14 15 14 14 13 13 12 12 12 13 13 14 15 15 15 15 15 15 15 15 14 14 13 12 12 12 11 10 10 10
1 1 2 4 5 5 6 7 7 8 9 10 10 12 12 13 13 13 13 12 13 12 12 12 13 14 15 15 15 15 15 15 14 14 14 13 12 12 11 11 11 10 10 10
1 1 2 3 4 4 8 8 8 8 8 9 9 10 11 11 12 12 12 12 12 12 12 13 13 14 14 15 15 15 15 14 14 14 13 13 12 12 11 11 10 10 10 9
2 1 2 3 4 5 7 7 7 7 7 7 8 9 10 10 12 12 11 11 12 12 13 13 13 14 14 14 15 15 14 14 14 13 13 12 12 11 11 10 10 10 9 9
2 2 2 2 3 5 6 6 6 7 6 6 6 7 7 9 11 12 10 10 11 12 12 13 13 14 14 14 14 14 14 14 14 14 13 12 12 11 11 10 10 9 9 8
1 1 1 2 3 5 6 6 6 6 5 5 5 6 6 7 8 8 8 9 10 11 12 13 13 14 14 14 14 14 14 14 14 13 13 12 11 10 10 9 9 9 8 8
2 2 2 2 3 4 5 5 5 5 5 5 5 5 5 5 6 7 7 8 9 10 11 12 13 13 14 14 14 14 14 14 13 13 12 11 10 10 9 9 8 8 8 7
3 3 3 3 4 5 5 5 5 5 5 4 4 4 5 5 5 5 6 7 8 9 10 11 12 13 13 14 14 14 14 13 13 12 11 10 10 9 9 8 8 7 7 7
3 3 3 3 4 5 5 4 4 4 4 4 4 4 4 4 5 5 5 6 7 9 9 11 11 12 13 13 13 13 13 13 12 11 10 10 9 8 8 7 7 7 6 6
3 3 2 3 4 4 5 4 4 4 4 4 4 4 4 4 4 5 5 6 7 8 9 10 11 12 12 12 12 13 13 12 11 11 10 9 8 8 7 7 6 6 6 6
3 2 2 3 4 4 4 4 4 4 3 3 3 3 4 4 4 4 5 5 6 7 8 9 10 11 11 12 12 12 12 12 11 10 9 9 8 7 7 6 6 5 5 5
Wind_Speed
12 13 21 27 29 26 22 24 25 23 18 19 26 27 25 21 19 21 22 22 22 22 21 20 20 21 21 21 22 23 23 22 19 16 16 16 16 15 14 13 17 19 19 19
14 23 27 25 25 26 25 25 25 19 16 17 22 26 24 24 24 22 24 24 23 22 21 19 19 20 22 23 24 24 24 23 23 19 18 17 16 14 13 11 15 19 20 19
23 19 20 22 24 25 27 26 25 19 13 15 17 23 25 24 24 23 24 24 24 23 24 22 20 21 22 23 25 23 25 25 25 23 17 14 12 11 12 15 15 18 20 20
19 22 20 22 25 24 24 24 23 20 15 13 16 17 24 23 24 25 26 25 25 24 24 22 21 21 22 24 23 24 25 25 25 24 20 21 18 17 19 16 15 17 20 20
13 16 20 24 26 24 19 16 19 19 18 17 16 15 18 19 24 26 26 27 26 25 24 23 22 21 21 22 21 22 24 24 25 25 25 24 21 19 16 16 17 17 17 18
17 15 15 17 20 22 16 12 13 15 14 19 24 19 17 20 24 24 24 25 25 24 24 23 21 19 18 18 19 20 22 23 24 25 25 26 25 22 19 19 18 16 14 15
12 15 16 14 12 16 17 11 9 11 13 16 21 19 18 19 21 22 22 22 23 22 22 21 21 19 18 18 19 19 22 23 24 25 26 26 26 24 22 20 19 17 14 14
7 9 12 14 16 12 20 20 13 10 12 15 16 19 18 20 19 20 20 20 20 21 20 19 19 19 18 18 19 20 21 21 22 24 25 24 24 19 17 19 17 18 15 16
5 7 7 12 14 14 14 18 17 11 10 11 11 15 17 14 18 20 20 20 20 19 19 18 17 17 17 17 18 19 20 20 21 22 23 22 22 21 19 19 18 16 15 14
5 7 8 9 10 16 13 11 9 10 10 12 12 17 15 17 21 21 21 21 20 17 16 16 15 15 15 15 15 17 18 19 19 20 20 17 20 20 19 17 18 17 17 15
5 6 6 5 9 13 12 12 8 8 9 11 12 12 12 15 16 19 20 20 18 16 15 14 13 13 13 13 14 15 16 16 17 18 18 18 18 18 18 17 17 17 16 16
4 5 7 8 6 7 11 12 11 9 9 13 13 9 4 9 11 12 14 14 13 12 11 11 11 12 12 13 13 14 14 15 15 16 17 17 17 17 17 17 16 16 16 15
4 4 6 4 3 2 6 10 12 10 9 12 15 11 2 3 5 7 8 9 9 9 9 9 10 11 11 12 12 13 13 14 14 15 16 16 16 17 17 16 15 15 15 14
6 5 6 8 7 6 8 12 13 11 11 14 18 16 7 5 4 4 5 6 7 9 10 10 10 10 10 10 11 12 12 13 14 14 15 15 16 16 16 15 14 14 14 14
4 6 9 13 14 13 13 15 16 18 18 17 18 17 13 7 5 3 3 4 6 8 9 10 10 10 10 10 10 11 12 12 13 14 14 14 14 14 13 13 13 13 13 12
4 6 9 12 11 12 14 16 18 20 21 21 19 18 11 8 5 2 1 3 5 6 8 9 10 10 11 11 11 11 12 13 14 14 14 13 13 13 13 13 13 13 12 12
5 5 6 8 9 10 11 13 14 15 16 18 19 15 8 9 8 5 3 2 3 4 7 8 9 10 10 11 11 12 13 13 14 14 13 13 13 13 13 12 13 12 12 12
10 8 5 7 8 8 5 4 8 12 12 12 11 9 10 11 11 6 4 4 3 3 5 6 8 8 9 9 10 11 13 14 14 14 13 13 13 13 13 13 13 12 11 11
15 10 6 5 7 9 6 3 5 9 7 6 8 9 10 11 10 10 6 6 6 6 5 6 7 8 9 10 12 13 14 14 14 14 14 14 14 14 14 13 13 11 11 10
11 12 8 7 7 6 3 7 8 7 5 4 5 7 8 8 10 11 8 9 9 7 5 4 5 7 9 11 13 15 15 15 15 15 14 14 14 14 14 13 13 11 10 10
6 8 12 12 9 7 5 8 2 4 3 4 4 6 7 8 10 11 11 11 10 8 6 4 5 7 9 12 14 15 15 15 14 14 14 14 14 14 14 13 12 12 11 11
6 6 8 8 9 8 4 3 0 4 5 5 6 7 9 11 13 13 12 11 10 8 6 4 5 5 7 12 14 15 14 14 14 14 14 14 14 12 12 13 12 12 12 12
8 7 5 7 8 6 5 5 6 6 7 8 9 10 11 12 13 14 13 12 10 9 7 5 5 5 7 11 13 14 14 15 16 16 15 14 14 13 13 14 14 12 11 10
8 8 9 10 12 13 12 10 8 8 9 11 11 12 11 12 13 13 12 11 9 8 6 5 5 7 8 10 12 12 15 17 18 17 16 14 14 13 12 10 10 10 10 10
11 7 10 15 16 14 12 11 11 12 13 14 14 13 12 12 13 13 12 10 8 6 5 5 7 8 9 10 12 14 16 18 18 17 15 14 13 13 12 10 8 8 7 8
15 15 14 14 13 12 15 15 15 16 16 15 15 15 14 12 13 12 11 9 7 6 5 6 7 8 10 11 13 15 17 19 20 17 15 13 12 12 12 12 11 13 11 13
Wind_Direction
214 218 219 216 216 228 235 233 233 235 227 222 233 239 239 233 230 232 232 231 229 228 227 220 212 207 203 199 197 196 195 194 191 191 193 195 199 199 200 200 200 199 199 197
226 231 230 227 225 228 235 239 238 240 232 228 239 243 242 238 234 234 234 232 231 230 227 220 211 205 202 200 198 198 197 195 194 196 196 199 199 200 199 198 203 202 201 199
227 233 229 227 226 226 231 234 233 232 227 232 245 248 242 239 236 235 236 235 234 230 228 221 212 206 203 202 200 199 198 197 197 197 194 194 194 195 197 201 203 204 203 201
236 237 233 230 227 223 232 230 235 234 229 229 223 247 239 233 231 231 232 231 232 230 229 226 217 209 205 204 201 201 200 199 198 195 194 192 194 198 203 201 201 201 202 203
234 229 225 228 227 221 230 230 231 234 234 242 226 238 246 227 230 229 229 228 228 227 226 225 220 213 208 204 200 201 200 200 198 197 197 197 201 205 203 200 200 199 200 202
250 245 232 232 230 225 226 226 233 234 234 238 228 228 247 227 228 229 228 226 225 225 224 224 222 215 209 202 198 199 199 201 199 198 199 201 204 204 199 198 197 197 197 200
251 240 227 223 227 219 210 201 204 209 215 231 224 226 241 233 227 229 228 225 224 222 221 220 218 213 206 199 197 197 198 200 198 199 201 203 205 204 203 199 199 196 196 198
249 243 215 209 217 212 208 203 208 211 217 225 216 226 237 232 227 229 233 232 227 223 220 218 215 212 207 201 196 195 197 199 197 199 202 203 205 205 205 203 200 199 199 200
265 263 233 219 218 209 207 213 223 240 247 232 218 233 238 231 226 225 229 229 227 223 217 214 210 207 205 201 197 195 194 195 196 197 199 202 202 203 203 202 201 201 201 199
268 272 262 232 220 215 216 206 205 211 217 229 229 231 229 210 214 216 221 223 223 218 214 211 207 203 200 196 193 192 192 192 192 194 196 198 200 201 200 199 199 199 199 195
263 264 272 241 213 209 203 203 206 209 223 225 232 235 226 221 213 216 219 220 221 215 209 205 200 195 191 188 186 186 188 188 189 191 192 194 196 197 197 197 199 198 196 192
268 265 267 253 240 242 215 205 202 204 205 222 235 241 187 222 223 223 224 220 218 212 203 196 188 182 181 182 183 182 183 185 186 186 188 190 190 190 192 195 196 194 193 191
292 270 281 262 219 240 225 216 218 230 224 219 225 231 182 251 246 236 232 224 210 196 188 181 176 175 176 177 178 179 180 181 181 181 182 183 185 187 190 191 190 188 187 186
300 256 252 268 287 273 256 247 235 229 225 222 227 238 245 260 260 243 230 220 202 187 180 177 174 174 171 171 174 175 176 176 175 176 178 180 182 185 186 184 183 183 182 182
311 271 270 277 279 270 259 251 243 232 230 230 234 239 244 248 256 246 215 196 182 179 181 180 175 171 169 168 169 170 170 170 170 172 175 178 178 177 177 176 176 176 177 177
307 283 286 279 274 269 261 250 243 237 234 239 245 243 250 258 265 256 201 178 183 182 178 178 176 173 172 170 168 167 169 169 168 170 172 170 168 168 169 170 169 169 169 169
265 267 283 276 286 285 252 238 232 226 229 231 236 244 262 259 260 259 248 208 195 191 185 184 184 182 178 175 172 170 167 165 166 167 166 165 164 164 164 162 162 163 163 162
237 248 258 277 280 242 246 250 232 226 231 239 250 264 265 259 255 250 254 249 254 232 203 198 191 185 178 172 169 162 159 162 163 162 161 161 161 159 158 159 160 159 158 160
218 222 241 254 264 269 275 280 246 232 238 282 270 275 279 281 260 247 265 290 280 266 234 213 200 184 172 169 164 157 158 160 161 162 162 162 160 157 157 158 158 155 153 153
206 213 233 245 255 253 307 322 297 234 233 334 316 301 297 281 241 245 280 286 286 288 267 225 194 173 169 167 161 159 160 163 166 165 161 159 158 156 156 155 151 147 146 144
196 210 225 239 251 264 316 329 310 196 270 322 306 306 297 261 257 284 296 285 277 275 267 234 198 182 173 166 164 165 165 169 163 156 152 152 153 152 148 144 142 140 137 135
223 222 220 227 238 249 352 359 268 297 316 312 305 304 298 290 290 292 292 288 283 277 263 232 205 186 170 168 168 168 168 159 151 148 147 146 145 141 141 138 137 138 138 136
231 232 243 233 249 286 290 278 274 285 299 309 308 305 303 299 298 298 293 286 277 262 248 226 199 177 173 175 174 168 159 151 148 145 143 141 138 137 140 140 139 140 141 140
245 238 249 261 264 277 286 284 281 291 297 301 302 302 302 298 299 297 291 282 272 257 235 209 183 175 175 175 172 162 152 149 146 144 141 140 137 134 133 133 138 141 145 145
252 249 253 261 270 281 279 280 287 296 299 302 304 300 296 297 296 294 289 278 262 252 229 205 191 180 174 166 161 154 151 148 144 141 139 138 135 132 128 120 119 130 133 145
244 244 248 258 267 272 280 287 291 294 295 298 300 300 298 293 293 292 286 276 256 234 214 199 187 171 163 158 154 153 153 149 143 142 141 139 136 132 128 121 102 79 96 99
Height
1434 1435 1427 1423 1426 1425 1424 1422 1421 1419 1422 1428 1426 1423 1423 1426 1429 1430 1431 1433 1435 1438 1442 1445 1448 1452 1456 1460 1464 1469 1473 1478 1483 1487 1490 1494 1497 1501 1504 1508 1512 1515 1518 1521
1430 1423 1417 1418 1421 1423 1424 1423 1420 1419 1420 1423 1421 1418 1416 1417 1420 1423 1424 1426 1428 1431 1435 1438 1441 1444 1448 1452 1456 1461 1466 1471 1475 1479 1483 1488 1492 1496 1499 1503 1506 1510 1513 1516
1418 1412 1414 1416 1417 1419 1419 1420 1418 1419 1420 1421 1420 1415 1410 1408 1412 1415 1417 1418 1421 1423 1426 1430 1433 1437 1440 1444 1448 1453 1458 1463 1468 1473 1478 1483 1488 1491 1494 1496 1499 1503 1507 1511
1412 1409 1411 1411 1411 1414 1414 1414 1416 1416 1420 1417 1418 1411 1397 1398 1401 1404 1407 1409 1411 1415 1418 1422 1426 1429 1432 1436 1441 1446 1451 1456 1461 1466 1470 1474 1477 1481 1484 1488 1492 1496 1501 1505
1405 1403 1404 1404 1402 1407 1406 1410 1414 1415 1416 1416 1413 1410 1390 1388 1391 1392 1395 1398 1402 1406 1409 1413 1417 1421 1424 1429 1433 1438 1444 1449 1453 1458 1462 1466 1470 1475 1479 1484 1487 1491 1494 1498
1402 1401 1401 1399 1400 1402 1405 1410 1412 1412 1416 1414 1403 1403 1387 1379 1379 1380 1384 1388 1392 1396 1400 1404 1409 1413 1417 1421 1426 1431 1436 1440 1445 1450 1454 1458 1463 1468 1472 1476 1480 1484 1488 1492
1396 1393 1394 1397 1399 1399 1402 1408 1410 1408 1406 1394 1386 1390 1377 1367 1370 1372 1375 1379 1383 1387 1391 1395 1400 1404 1408 1413 1417 1422 1427 1432 1437 1442 1446 1451 1456 1461 1465 1469 1473 1477 1481 1485
1395 1386 1385 1387 1391 1391 1391 1396 1394 1390 1383 1375 1377 1376 1362 1360 1364 1367 1370 1372 1375 1379 1382 1386 1390 1395 1400 1404 1409 1414 1419 1424 1429 1434 1439 1444 1449 1454 1458 1463 1467 1471 1475 1479
1397 1386 1381 1382 1383 1387 1387 1387 1385 1386 1377 1373 1370 1361 1355 1356 1358 1361 1363 1365 1367 1370 1374 1378 1382 1387 1392 1396 1401 1406 1411 1417 1422 1427 1432 1437 1442 1447 1451 1456 1461 1465 1470 1474
1400 1393 1381 1379 1381 1380 1381 1382 1386 1388 1381 1373 1364 1358 1347 1346 1350 1353 1356 1358 1360 1364 1367 1371 1375 1380 1384 1389 1395 1400 1405 1410 1415 1420 1425 1430 1435 1440 1445 1450 1455 1459 1464 1469
1400 1395 1383 1379 1376 1374 1379 1382 1382 1380 1372 1365 1357 1345 1333 1335 1340 1343 1346 1349 1353 1357 1361 1365 1369 1374 1378 1383 1388 1394 1399 1404 1409 1414 1419 1424 1429 1434 1439 1444 1449 1454 1459 1463
1399 1394 1384 1376 1374 1376 1373 1374 1377 1375 1370 1362 1352 1339 1330 1333 1334 1338 1341 1344 1348 1352 1356 1360 1364 1368 1373 1378 1383 1388 1393 1398 1404 1409 1413 1418 1423 1428 1433 1438 1443 1449 1454 1458
1399 1395 1385 1372 1376 1378 1376 1373 1374 1372 1364 1357 1351 1339 1332 1334 1335 1338 1340 1342 1345 1348 1352 1356 1360 1364 1368 1373 1378 1383 1388 1393 1399 1404 1408 1413 1418 1423 1428 1433 1438 1443 1449 1453
1398 1393 1389 1381 1375 1376 1374 1373 1371 1372 1363 1354 1345 1337 1335 1337 1337 1338 1340 1341 1343 1346 1349 1353 1357 1361 1365 1369 1374 1379 1384 1389 1394 1399 1404 1408 1413 1418 1423 1429 1434 1439 1444 1449
1398 1391 1385 1380 1376 1373 1369 1367 1367 1365 1357 1349 1339 1338 1335 1336 1337 1338 1339 1340 1342 1344 1347 1350 1353 1357 1362 1366 1371 1376 1380 1385 1390 1395 1399 1404 1409 1415 1420 1425 1430 1435 1440 1445
1399 1393 1386 1378 1370 1367 1363 1360 1359 1357 1352 1346 1341 1337 1335 1337 1338 1339 1340 1340 1341 1343 1345 1348 1351 1355 1359 1363 1368 1372 1377 1382 1386 1391 1396 1401 1406 1411 1416 1421 1426 1431 1436 1441
1398 1395 1389 1374 1368 1364 1355 1349 1348 1347 1344 1343 1339 1337 1339 1339 1339 1339 1340 1341 1341 1342 1344 1346 1349 1353 1357 1361 1365 1369 1374 1379 1383 1388 1393 1398 1403 1408 1413 1418 1423 1428 1432 1437
1394 1393 1388 1376 1369 1362 1343 1341 1341 1341 1341 1342 1341 1342 1341 1340 1340 1339 1340 1340 1341 1342 1343 1345 1348 1351 1354 1359 1363 1367 1371 1376 1380 1385 1390 1395 1400 1405 1410 1415 1420 1425 1430 1434
1386 1388 1383 1375 1364 1350 1341 1342 1342 1341 1341 1343 1342 1342 1341 1340 1337 1336 1338 1339 1340 1341 1342 1344 1346 1349 1352 1356 1360 1364 1369 1373 1378 1383 1388 1392 1397 1402 1407 1412 1417 1422 1427 1431
1380 1383 1382 1373 1364 1348 1341 1341 1340 1341 1341 1344 1343 1343 1343 1340 1336 1333 1336 1337 1338 1339 1340 1342 1344 1347 1350 1354 1358 1362 1366 1371 1376 1381 1386 1391 1396 1401 1406 1410 1415 1420 1425 1429
1376 1378 1376 1370 1361 1345 1344 1342 1339 1343 1343 1344 1343 1343 1342 1340 1338 1337 1336 1335 1335 1336 1337 1339 1341 1344 1347 1351 1355 1359 1364 1369 1374 1379 1384 1389 1394 1399 1404 1409 1414 1418 1423 1427
1369 1366 1365 1363 1358 1349 1344 1343 1345 1344 1343 1342 1341 1340 1339 1338 1336 1334 1333 1331 1331 1332 1333 1335 1337 1340 1343 1348 1352 1356 1361 1367 1372 1377 1382 1387 1392 1397 1403 1407 1412 1417 1421 1425
1363 1360 1357 1355 1349 1344 1344 1344 1344 1343 1342 1340 1339 1337 1336 1334 1332 1329 1328 1327 1327 1328 1329 1331 1333 1336 1340 1344 1349 1353 1358 1364 1369 1375 1380 1386 1391 1396 1401 1406 1410 1415 1419 1423
1357 1356 1355 1350 1343 1343 1342 1341 1341 1340 1339 1337 1336 1334 1332 1330 1328 1326 1324 1323 1322 1323 1325 1326 1329 1332 1336 1341 1346 1351 1356 1361 1367 1372 1378 1384 1389 1395 1400 1405 1410 1414 1418 1421
1352 1352 1349 1345 1341 1340 1338 1338 1338 1337 1335 1333 1331 1330 1328 1326 1323 1321 1319 1318 1317 1318 1320 1322 1325 1328 1332 1337 1342 1347 1353 1359 1364 1371 1376 1382 1388 1393 1398 1403 1409 1413 1417 1421
1346 1347 1345 1338 1337 1338 1334 1334 1334 1332 1330 1328 1327 1324 1322 1321 1318 1316 1313 1312 1312 1313 1315 1318 1321 1325 1329 1333 1339 1345 1351 1357 1362 1368 1375 1380 1386 1391 1396 1401 1407 1412 1417 1421